User: anonymous   Login
Location: Unspecified
(40.7945°N, 111.1337°W)
Time: 14:07:06
(UTC-06:00)
Language:

CZ-3 Stage 3 - Orbit

View from above orbital plane
View from above orbital plane
View from above satellite
View from above satellite

Ground track
Ground track

The orbit data is extracted from the following two-line orbital elements,

1 14900U 84035B   19112.49073879 -.00000096  00000-0  20531-3 0  9995
2 14900  30.5076 178.5429 7134059 351.9290   1.1158  2.33876680230533
Epoch (UTC): 22 April 2019 11:46:39
Eccentricity: 0.7134059
inclination: 30.5076°
perigee height: 493 km
apogee height: 34699 km
right ascension of ascending node: 178.5429°
argument of perigee: 351.9290°
revolutions per day: 2.33876680
mean anomaly at epoch: 1.1158°
orbit number at epoch: 23053

The dashed part of the orbit path shows where the satellite is in the earth's shadow,  

DLR